TimeMST,TemperatureF,Dew PointF,Humidity,Sea Level PressureIn,VisibilityMPH,Wind Direction,Wind SpeedMPH,Gust SpeedMPH,PrecipitationIn,Events,Conditions,WindDirDegrees,DateUTC
12:15 AM,33.6,6.6,32,30.31,10.0,NE,6.9,-,N/A,,Clear,40,2012-11-05 07:15:00
12:35 AM,34.0,6.8,32,30.32,10.0,East,3.5,-,N/A,,Clear,80,2012-11-05 07:35:00
12:55 AM,37.6,8.1,29,30.33,10.0,NW,3.5,-,N/A,,Clear,320,2012-11-05 07:55:00
1:15 AM,34.3,6.3,31,30.33,10.0,Calm,Calm,-,N/A,,Clear,0,2012-11-05 08:15:00
1:35 AM,33.8,6.3,32,30.33,10.0,North,3.5,-,N/A,,Clear,350,2012-11-05 08:35:00
1:55 AM,30.4,3.9,33,30.34,10.0,NE,4.6,-,N/A,,Clear,50,2012-11-05 08:55:00
2:15 AM,31.6,6.4,35,30.35,10.0,NNW,3.5,-,N/A,,Clear,340,2012-11-05 09:15:00
2:35 AM,27.5,3.4,36,30.35,10.0,Calm,Calm,-,N/A,,Clear,0,2012-11-05 09:35:00
2:55 AM,30.0,4.6,34,30.35,10.0,North,4.6,-,N/A,,Clear,360,2012-11-05 09:55:00
3:15 AM,28.9,4.1,35,30.34,10.0,North,3.5,-,N/A,,Clear,360,2012-11-05 10:15:00
3:35 AM,30.6,5.7,35,30.34,10.0,Calm,Calm,-,N/A,,Clear,0,2012-11-05 10:35:00
3:55 AM,30.6,4.6,33,30.35,10.0,Calm,Calm,-,N/A,,Clear,0,2012-11-05 10:55:00
4:15 AM,28.6,4.3,36,30.34,10.0,Calm,Calm,-,N/A,,Clear,0,2012-11-05 11:15:00
4:35 AM,25.2,3.6,40,30.35,10.0,North,4.6,-,N/A,,Clear,360,2012-11-05 11:35:00
4:55 AM,25.0,3.4,40,30.35,10.0,North,4.6,-,N/A,,Clear,350,2012-11-05 11:55:00
5:15 AM,25.9,4.1,39,30.35,10.0,NNW,3.5,-,N/A,,Clear,330,2012-11-05 12:15:00
5:35 AM,23.9,1.9,39,30.36,10.0,Calm,Calm,-,N/A,,Clear,0,2012-11-05 12:35:00
5:55 AM,25.9,5.0,41,30.37,10.0,Calm,Calm,-,N/A,,Clear,0,2012-11-05 12:55:00
6:15 AM,28.6,6.8,40,30.37,10.0,Calm,Calm,-,N/A,,Clear,0,2012-11-05 13:15:00
6:35 AM,27.9,4.6,37,30.37,10.0,Calm,Calm,-,N/A,,Clear,0,2012-11-05 13:35:00
7:15 AM,26.6,3.9,38,30.39,10.0,North,3.5,-,N/A,,Clear,10,2012-11-05 14:15:00
7:35 AM,31.6,5.5,33,30.39,10.0,Calm,Calm,-,N/A,,Clear,0,2012-11-05 14:35:00
7:55 AM,34.9,7.2,31,30.39,10.0,Calm,Calm,-,N/A,,Clear,0,2012-11-05 14:55:00
8:15 AM,39.7,8.6,28,30.40,10.0,Calm,Calm,-,N/A,,Clear,0,2012-11-05 15:15:00
8:35 AM,44.2,10.2,25,30.40,10.0,Calm,Calm,-,N/A,,Clear,0,2012-11-05 15:35:00
8:55 AM,47.5,11.5,23,30.40,10.0,Calm,Calm,-,N/A,,Clear,0,2012-11-05 15:55:00
9:15 AM,50.5,14.0,23,30.40,10.0,Calm,Calm,-,N/A,,Clear,0,2012-11-05 16:15:00
9:35 AM,53.6,14.9,22,30.39,7.0,Calm,Calm,-,N/A,,Clear,0,2012-11-05 16:35:00
9:55 AM,55.4,16.0,21,30.38,10.0,South,4.6,-,N/A,,Clear,190,2012-11-05 16:55:00
10:15 AM,56.5,17.4,22,30.38,10.0,SSW,5.8,-,N/A,,Clear,200,2012-11-05 17:15:00
10:35 AM,57.4,19.4,23,30.37,10.0,South,6.9,-,N/A,,Clear,170,2012-11-05 17:35:00
10:55 AM,57.6,20.5,24,30.36,10.0,SSE,9.2,-,N/A,,Clear,160,2012-11-05 17:55:00
11:15 AM,58.8,20.3,23,30.35,10.0,SSE,6.9,-,N/A,,Clear,160,2012-11-05 18:15:00
11:35 AM,59.5,19.9,22,30.34,10.0,South,5.8,-,N/A,,Clear,180,2012-11-05 18:35:00
11:55 AM,61.3,20.1,20,30.34,10.0,SSE,5.8,-,N/A,,Clear,160,2012-11-05 18:55:00
12:15 PM,61.7,19.8,20,30.32,10.0,ESE,4.6,-,N/A,,Clear,120,2012-11-05 19:15:00
12:35 PM,61.7,19.6,20,30.31,10.0,Calm,Calm,-,N/A,,Clear,0,2012-11-05 19:35:00
12:55 PM,63.7,19.4,18,30.30,10.0,Calm,Calm,-,N/A,,Clear,0,2012-11-05 19:55:00
1:35 PM,65.5,18.5,16,30.28,10.0,South,5.8,-,N/A,,Clear,190,2012-11-05 20:35:00
1:55 PM,65.5,18.5,16,30.27,10.0,South,4.6,-,N/A,,Clear,180,2012-11-05 20:55:00
2:15 PM,66.2,18.5,16,30.26,10.0,SSW,3.5,-,N/A,,Clear,200,2012-11-05 21:15:00
2:35 PM,67.3,18.5,15,30.26,10.0,SSW,3.5,-,N/A,,Clear,200,2012-11-05 21:35:00
2:55 PM,68.4,18.5,15,30.26,10.0,WSW,3.5,-,N/A,,Clear,240,2012-11-05 21:55:00
3:15 PM,67.3,18.0,15,30.25,10.0,North,3.5,-,N/A,,Clear,10,2012-11-05 22:15:00
3:35 PM,69.1,16.5,13,30.25,10.0,NW,8.1,-,N/A,,Clear,310,2012-11-05 22:35:00
3:55 PM,68.7,16.5,14,30.25,10.0,NW,9.2,20.7,N/A,,Clear,320,2012-11-05 22:55:00
4:15 PM,67.1,17.2,15,30.25,10.0,NNW,9.2,12.7,N/A,,Clear,330,2012-11-05 23:15:00
4:35 PM,64.6,16.7,16,30.26,10.0,North,9.2,-,N/A,,Clear,350,2012-11-05 23:35:00
4:55 PM,61.7,17.1,18,30.26,10.0,North,5.8,-,N/A,,Clear,350,2012-11-05 23:55:00
5:15 PM,58.5,16.9,20,30.26,10.0,Calm,Calm,-,N/A,,Clear,0,2012-11-06 00:15:00
5:35 PM,57.9,17.1,20,30.26,10.0,West,3.5,-,N/A,,Clear,270,2012-11-06 00:35:00
5:55 PM,57.2,16.7,21,30.26,10.0,West,8.1,-,N/A,,Clear,260,2012-11-06 00:55:00
6:15 PM,52.3,14.9,23,30.26,10.0,SW,4.6,-,N/A,,Clear,230,2012-11-06 01:15:00
6:35 PM,50.7,15.6,25,30.27,10.0,West,3.5,-,N/A,,Clear,280,2012-11-06 01:35:00
6:55 PM,47.7,14.7,27,30.28,10.0,Calm,Calm,-,N/A,,Clear,0,2012-11-06 01:55:00
7:15 PM,50.5,16.2,26,30.28,10.0,Calm,Calm,-,N/A,,Clear,0,2012-11-06 02:15:00
7:35 PM,44.6,13.1,28,30.28,10.0,NNE,3.5,-,N/A,,Clear,30,2012-11-06 02:35:00
7:55 PM,41.9,12.6,30,30.28,10.0,East,3.5,-,N/A,,Clear,80,2012-11-06 02:55:00
8:15 PM,41.9,12.7,31,30.29,10.0,East,4.6,-,N/A,,Clear,90,2012-11-06 03:15:00
8:35 PM,42.1,11.7,29,30.29,10.0,Calm,Calm,-,N/A,,Clear,0,2012-11-06 03:35:00
8:55 PM,40.1,12.4,32,30.29,10.0,Calm,Calm,-,N/A,,Clear,0,2012-11-06 03:55:00
9:15 PM,37.2,9.7,32,30.29,10.0,Calm,Calm,-,N/A,,Clear,0,2012-11-06 04:15:00
9:35 PM,38.8,12.4,34,30.29,10.0,NW,3.5,-,N/A,,Clear,310,2012-11-06 04:35:00
9:55 PM,36.7,11.3,35,30.29,10.0,West,4.6,-,N/A,,Clear,280,2012-11-06 04:55:00
10:15 PM,35.2,10.0,35,30.29,10.0,West,3.5,-,N/A,,Clear,270,2012-11-06 05:15:00
10:35 PM,36.0,11.3,36,30.29,10.0,Calm,Calm,-,N/A,,Clear,0,2012-11-06 05:35:00
10:55 PM,34.5,10.0,36,30.29,10.0,NNW,4.6,-,N/A,,Clear,340,2012-11-06 05:55:00
11:15 PM,32.4,8.4,37,30.29,10.0,North,6.9,-,N/A,,Clear,10,2012-11-06 06:15:00
11:35 PM,34.3,12.0,40,30.29,10.0,NNE,6.9,-,N/A,,Clear,30,2012-11-06 06:35:00
11:55 PM,35.2,11.8,38,30.29,10.0,NNE,4.6,-,N/A,,Clear,20,2012-11-06 06:55:00